Regional Weather Roundup
Issued by NWS

Home | Current Version | Previous Version | Graphics & Text | Print | Product List | Glossary On
Versions: 1 2 3 4 5 6 7 8 9 10 11 12 13 14 15 16 17 18 19 20 21 22 23 24 25 26 27 28 29 30 31 32 33 34 35 36 37 38 39 40 41 42 43 44 45 46 47 48 49 50
000
ASUS43 KMKX 030811
RWRWI

WISCONSIN REGIONAL WEATHER ROUNDUP
NATIONAL WEATHER SERVICE MILWAUKEE/SULLIVAN WI
200 AM CST SAT DEC 03 2016

NOTE: "FAIR" INDICATES FEW OR NO CLOUDS BELOW 12,000 FEET WITH NO
SIGNIFICANT WEATHER AND/OR OBSTRUCTIONS TO VISIBILITY.

WIZ001-002-006>008-014>016-023>028-030900-
NORTHWEST WISCONSIN

CITY           SKY/WX    TMP DP  RH WIND       PRES   REMARKS
SUPERIOR ARPT  CLOUDY    29  24  80 W6        30.28F WCI  23
ASHLAND        CLOUDY    30  24  78 SW6       30.28  WCI  24
HAYWARD        CLOUDY    29  23  78 SW6       30.27  WCI  23
SIREN          CLOUDY    29  24  81 W3        30.28S
CUMBERLAND     CLOUDY    28  23  80 W3        30.27S
RICE LAKE      CLOUDY    30  25  81 W3        30.29S
CHETEK         CLOUDY    29  24  80 CALM      30.28S
LADYSMITH      CLOUDY    28  26  89 CALM      30.29S
EAU CLAIRE     CLOUDY    30  26  85 W8        30.28S WCI  22
MENOMONIE      CLOUDY    32  24  72 W6        30.29S WCI  26
NEW RICHMOND   CLOUDY    29  24  82 W3        30.29S
OSCEOLA        CLOUDY    30  25  82 W5        30.32S WCI  25
$$

WIZ003>005-009-010-017-018-030900-
NORTH CENTRAL WISCONSIN

CITY           SKY/WX    TMP DP  RH WIND       PRES   REMARKS
MANITOWISH WTR CLOUDY    26  26 100 W6        30.23S WCI  19
ARBOR VITAE    CLOUDY    29  27  92 CALM      30.23R
WOODRUFF       CLOUDY    29  27  92 CALM      30.23R
RHINELANDER    CLOUDY    29  26  89 W5        30.24R WCI  24
EAGLE RIVER    CLOUDY    28  28  97 W3        30.22S
LAND O LAKES   CLOUDY    29  27  92 W3        30.23R
PHILLIPS       CLOUDY    25  24  96 S3        30.25R
TOMAHAWK       CLOUDY    27  22  82 W5        30.25F WCI  22
MEDFORD        CLOUDY    27  22  82 NW6       30.25S WCI  21
MERRILL        CLOUDY    28  23  79 W7        30.27S WCI  21
$$

WIZ029-030-035-036-043>047-030900-
CENTRAL WISCONSIN

CITY           SKY/WX    TMP DP  RH WIND       PRES   REMARKS
WAUSAU         CLOUDY    28  22  78 NW10      30.25S WCI  19
MOSINEE        CLOUDY    28  25  86 NW6       30.27S WCI  22
MARSHFIELD     CLOUDY    29  23  78 NW6       30.25F WCI  23
STEVENS POINT  CLOUDY    28  22  78 NW6       30.28S WCI  22
WAUPACA        CLOUDY    33  24  71 CALM      30.29S
WAUTOMA        NOT AVBL
WISC RAPIDS    CLOUDY    30  24  78 NW5       30.29S WCI  25
CAMP DOUGLAS   CLOUDY    30  23  73 W8        30.29S WCI  23
$$

WIZ011>013-019>022-031-037>040-048>050-030900-
NORTHEAST WISCONSIN

CITY           SKY/WX    TMP DP  RH WIND       PRES   REMARKS
ANTIGO         CLOUDY    28  25  89 W6        30.24S WCI  22
SHAWANO        CLOUDY    34  26  73 W7        30.28R WCI  28
OCONTO         CLOUDY    33  28  83 W6        30.27S WCI  27
STURGEON BAY   NOT AVBL
GREEN BAY      CLOUDY    35  29  78 W6        30.28  WCI  30
MANITOWOC      CLOUDY    33  27  78 W6        30.28S WCI  28
APPLETON       CLOUDY    32  23  69 W6        30.26S WCI  26
CLINTONVILLE   CLOUDY    32  25  74 W5        30.28R WCI  27
OSHKOSH        CLOUDY    31  23  72 W7        30.28S WCI  24
$$

WIZ032>034-041-042-053>061-030900-
SOUTHWEST WISCONSIN

CITY           SKY/WX    TMP DP  RH WIND       PRES   REMARKS
LA CROSSE      CLOUDY    32  22  66 SW8       30.32  WCI  25
SPARTA         CLOUDY    31  23  71 W5        30.31S WCI  26
VIROQUA        CLOUDY    29  22  77 W5        30.29S WCI  24
BOSCOBEL       CLOUDY    32  21  64 W3        30.34R
PRAIRIE DU CHI CLOUDY    31  22  68 NW3       30.33R
PLATTEVILLE    CLOUDY    30  25  79 NW5       30.32R WCI  25
$$

WIZ056-057-062-063-064-067-068-030900-
SOUTH CENTRAL WISCONSIN

CITY           SKY/WX    TMP DP  RH WIND       PRES   REMARKS
REEDSBURG      CLOUDY    30  23  74 NW3       30.30R
BARABOO/DELLS  CLOUDY    30  23  73 W3        30.29S
LONE ROCK      CLOUDY    32  22  66 NW5       30.32S WCI  27
MINERAL POINT  CLOUDY    32  27  80 W6        30.30R WCI  26
MADISON        CLOUDY    30  22  72 NW3       30.30S
MIDDLETON      CLOUDY    32  25  74 NW7       30.30S WCI  25
WATERTOWN      CLOUDY    31  24  75 NW6       30.30R WCI  25
MONROE         CLOUDY    30  25  80 NW5       30.30R WCI  25
JANESVILLE     CLOUDY    32  27  80 NW8       30.31R WCI  25
$$

WIZ051-052-058>065-066-070>072-030900-
SOUTHEAST WISCONSIN

CITY           SKY/WX    TMP DP  RH WIND       PRES   REMARKS
MILWAUKEE      CLOUDY    33  23  66 NW7       30.30S WCI  27
WAUKESHA       CLOUDY    30  23  74 W7        30.30S WCI  23
MILWAUKEE/TIMM CLOUDY    32  21  64 W8        30.31R WCI  25
RACINE         CLOUDY    33  22  63 W3        30.32S
BURLINGTON     CLOUDY    31  24  74 CALM      30.31R
KENOSHA        CLOUDY    32  23  69 W5        30.31R WCI  27
FOND DU LAC    CLOUDY    31  21  66 W7        30.30R WCI  24
SHEBOYGAN      CLOUDY    32  24  72 W8        30.29R WCI  25
WEST BEND      CLOUDY    30  25  80 W8        30.29R WCI  23
JUNEAU         CLOUDY    30  22  74 CALM      30.30S
$$

LSZ147-162-030900-
LAKE SUPERIOR

STATION/POSITION TIME  TEMP    WIND        PRES    WAVE
                       AIR SEA DIR/SP/G            HT/PER
                 (UTC) (F)     (DEG/KT/KT) (MB)    (FT/S)
DEVILS ISLAND    0800   33     320/  7/  9 1025.7R
PORT WING        0740   31     200/  6/  8 1025.1S
SAXON HARBOR     0730   31     210/  6/  8 1024.7S
$$

LMZ867-665-643>646-030900-
LAKE MICHIGAN

STATION/POSITION TIME  TEMP    WIND        PRES    WAVE
                       AIR SEA DIR/SP/G            HT/PER
                 (UTC) (F)     (DEG/KT/KT) (MB)    (FT/S)
CHAMBERS ISLAND  0740   36     290/  6/  9 1024.0R
NORTHPORT PIER   0740   37     290/  6/ 14 1024.0R
SISTER BAY       0724   37     320/ 12/ 14   N/A
ALGOMA LAKESHORE 0751           CALM  /  3   N/A
KEWAUNEE LAKESHO 0742   34     280/  6/  9 1024.2S
SHEBOYGAN LAKESH 0800   33     280/ 12/ 14 1026.0R
PORT WASHINGTON  0730   33     280/  5/  8 1026.8S
MILWAUKEE LAKESH 0750   32     290/  8/ 10   N/A
S MID LAKE BUOY  0750   36 49  280/ 10/ 14 1026.1R   2/ 4
KENOSHA   LAKESH 0800   33     290/  6/  8 1026.4
$$

TC  - TEMPERATURE IN CELSIUS
VSB - VISIBILITY IN STATUTE MILES
WCI - WIND CHILL INDEX
HX  - HEAT INDEX





USA.gov is the U.S. government's official web portal to all federal, state and local government web resources and services.